Probability
0 0 0 0 0 0 0 0 0 0 0 0 0 0 0 0 0 0 0 0 0 0 0 0 0 0 0 0 0 0 0 0 0 0 0 0 0 0 0 0 0 0 0 0
0 0 0 0 0 0 0 0 0 0 0 0 0 0 0 0 0 0 0 0 0 0 0 0 0 0 0 0 0 0 0 0 0 0 0 0 0 0 0 0 0 0 0 0
0 0 0 0 0 0 0 0 0 0 0 0 0 0 0 0 0 0 0 0 0 0 0 0 0 0 0 0 0 0 0 0 0 0 0 0 0 0 0 0 0 0 0 0
0 0 0 0 0 0 0 0 0 0 0 0 0 0 0 0 0 0 0 0 0 0 0 0 0 0 0 0 0 0 0 0 0 0 0 0 0 0 0 0 0 0 0 0
0 0 0 0 0 0 0 0 0 0 0 0 0 0 0 0 0 0 0 0 0 0 0 0 0 0 0 0 0 0 0 0 0 0 0 0 0 0 0 0 0 0 0 0
0 0 0 0 0 0 0 0 0 0 0 0 0 0 0 0 0 0 0 0 0 0 0 0 0 0 0 0 0 0 0 0 0 0 0 0 0 0 0 0 0 0 0 0
0 0 0 0 0 0 0 0 0 0 0 0 0 0 0 0 0 0 0 0 0 0 0 0 0 0 0 0 0 0 0 0 0 0 0 0 0 0 0 0 0 0 0 0
0 0 0 0 0 0 0 0 0 0 0 0 0 0 0 0 0 0 0 0 0 0 0 0 0 0 0 0 0 0 0 0 0 0 0 0 0 0 0 0 0 0 0 0
0 0 0 0 0 0 0 0 0 0 0 0 0 0 0 0 0 0 0 0 0 0 0 0 0 0 0 0 0 0 0 0 0 0 0 0 0 0 0 0 0 0 0 0
0 0 0 0 0 0 0 0 0 0 0 0 0 0 0 0 0 0 0 0 0 0 0 0 0 0 0 0 0 0 0 0 0 0 0 0 0 0 0 0 0 0 0 0
0 0 0 0 0 0 0 0 0 0 0 0 0 0 0 0 0 0 0 0 0 0 0 0 0 0 0 0 0 0 0 0 0 0 0 0 0 0 0 0 0 0 0 0
0 0 0 0 0 0 0 0 0 0 0 0 0 0 0 0 0 0 0 0 0 0 0 0 0 0 0 0 0 0 0 0 0 0 0 0 0 0 0 0 0 0 0 0
0 0 0 0 0 0 0 0 0 0 0 0 0 0 0 0 0 0 0 0 0 0 0 0 0 0 0 0 0 0 0 0 0 0 0 0 0 0 0 0 0 0 0 0
0 0 0 0 0 0 0 0 0 0 0 0 0 0 0 0 0 0 0 0 0 0 0 0 0 0 0 0 0 0 0 0 0 0 0 0 0 0 0 0 0 0 0 0
0 0 0 0 0 0 0 0 0 0 0 0 0 0 0 0 0 0 0 0 0 0 0 0 0 0 0 0 0 0 0 0 0 0 0 0 0 0 0 0 0 0 0 0
0 0 0 0 0 0 0 0 0 0 0 0 0 0 0 0 0 0 0 0 0 0 0 0 0 0 0 0 0 0 0 0 0 0 0 0 0 0 0 0 0 0 0 0
0 0 0 0 0 0 0 0 0 0 0 0 0 0 0 0 0 0 0 0 0 0 0 0 0 0 0 0 0 0 0 0 0 0 0 0 0 0 0 0 0 0 0 0
0 0 0 0 0 0 0 0 0 0 0 0 0 0 0 0 0 0 0 0 0 0 0 0 0 0 0 0 0 0 0 0 0 0 0 0 0 0 0 0 0 0 0 0
0 0 0 0 0 0 0 0 0 0 0 0 0 0 0 0 0 0 0 0 0 0 0 0 0 0 0 0 0 0 0 0 0 0 0 0 0 0 0 0 0 0 0 0
0 0 0 0 0 0 0 0 0 0 0 0 0 0 0 0 0 0 0 0 0 0 0 0 0 0 0 0 0 0 0 0 0 0 0 0 0 0 0 0 0 0 0 0
0 0 0 0 0 0 0 0 0 0 0 0 0 0 0 0 0 0 0 0 0 0 0 0 0 0 0 0 0 0 0 0 0 0 0 0 0 0 0 0 0 0 0 0
0 0 0 0 0 0 0 0 0 0 0 0 0 0 0 0 0 0 0 0 0 0 0 0 0 0 0 0 0 0 0 0 0 0 0 0 0 0 0 0 0 0 0 0
0 0 0 0 0 0 0 0 0 0 0 0 0 0 0 0 0 0 0 0 0 0 0 0 0 0 0 0 0 0 0 0 0 0 0 0 0 0 0 0 0 0 0 0
0 0 0 0 0 0 0 0 0 0 0 0 0 0 0 0 0 0 0 0 0 0 0 0 0 0 0 0 0 0 0 0 0 0 0 0 0 0 0 0 0 0 0 0
0 0 0 0 0 0 0 0 0 0 0 0 0 0 0 0 0 0 0 0 0 0 0 0 0 0 0 0 0 0 0 0 0 0 0 0 0 0 0 0 0 0 0 0
0 0 0 0 0 0 0 0 0 0 0 0 0 0 0 0 0 0 0 0 0 0 0 0 0 0 0 0 0 0 0 0 0 0 0 0 0 0 0 0 0 0 0 0
0 0 0 0 0 0 0 0 0 0 0 0 0 0 0 0 0 0 0 0 0 0 0 0 0 0 0 0 0 0 0 0 0 0 0 0 0 0 0 0 0 0 0 0
Wind_Speed
9 8 8 11 12 12 15 14 12 11 13 15 13 12 11 10 9 9 8 8 7 7 7 7 7 6 6 6 6 7 7 8 8 7 6 6 5 5 4 4 4 4 4 4
7 6 8 13 16 16 17 18 19 20 20 14 9 7 8 8 8 9 9 8 8 8 8 8 7 7 6 6 6 7 8 8 7 7 6 6 6 5 5 5 5 5 5 4
5 4 8 11 10 12 10 11 12 14 12 7 8 8 9 9 9 8 8 9 9 9 8 8 7 7 7 6 6 7 8 7 7 7 7 7 6 6 6 6 5 5 5 5
6 6 8 1 2 5 8 9 12 12 11 10 10 10 10 10 8 8 9 10 10 9 9 8 7 6 6 6 6 7 8 8 7 7 7 6 6 7 6 5 5 5 5 5
4 6 10 6 3 5 6 6 7 11 11 9 8 9 8 5 5 8 10 10 10 9 9 8 7 6 6 6 7 7 8 8 8 7 7 7 7 7 6 5 5 5 5 5
5 6 7 1 3 2 3 4 1 3 5 7 6 8 7 4 8 11 11 10 9 9 8 8 7 5 6 7 7 9 8 8 7 7 8 8 8 7 6 5 5 5 5 5
8 8 10 5 3 4 4 2 1 3 6 8 8 10 12 12 12 11 11 11 10 9 8 7 6 5 7 8 9 8 7 7 7 7 8 7 6 6 5 5 5 5 5 5
7 9 10 4 6 6 4 4 5 8 9 10 12 13 13 13 13 12 11 10 9 8 8 7 6 6 8 9 8 6 6 7 7 7 6 6 6 6 6 5 6 6 5 5
10 10 2 4 6 5 5 8 9 9 11 12 13 14 13 13 12 12 11 10 8 8 9 8 6 7 9 8 6 6 6 7 7 7 6 6 6 6 6 5 5 5 5 4
9 12 11 10 10 9 9 11 12 12 12 12 13 14 14 12 11 11 10 9 8 8 9 9 7 8 9 7 6 6 7 7 6 7 6 6 6 6 5 6 6 5 5 5
12 12 11 9 8 9 9 10 11 12 11 11 12 13 12 11 11 10 9 8 7 8 9 10 8 8 7 6 6 7 7 7 6 6 6 6 6 6 7 7 6 6 5 5
12 10 9 10 8 9 10 11 11 11 11 10 10 11 11 11 10 9 9 8 8 9 9 10 9 8 7 6 7 7 7 7 6 5 5 5 5 5 8 8 9 10 9 8
13 10 11 13 11 10 10 11 10 10 10 11 10 9 10 10 9 9 9 9 9 9 10 10 9 9 8 6 7 8 8 7 5 5 6 6 5 5 5 6 9 11 11 11
11 10 12 11 10 10 10 10 9 9 9 9 9 9 8 9 9 10 10 9 9 9 10 10 9 10 8 6 8 9 8 8 7 6 6 6 6 6 5 5 4 5 7 9
9 9 10 10 10 9 8 7 8 9 8 8 7 8 8 9 10 10 10 9 9 9 10 9 10 10 7 6 8 8 7 6 6 6 6 6 5 5 5 6 5 4 4 5
7 7 8 9 10 9 8 7 8 9 9 9 9 9 9 10 10 11 10 8 9 10 10 10 10 9 6 6 7 7 7 8 7 5 5 5 5 5 5 5 5 5 5 4
7 7 6 7 8 8 8 8 8 9 10 10 10 10 10 10 11 11 10 8 9 11 10 10 10 8 6 7 7 6 5 6 9 6 6 6 5 6 6 5 5 5 5 5
7 7 7 8 8 9 9 9 9 10 10 10 10 10 10 10 11 12 11 10 10 11 10 9 8 7 7 7 6 5 5 5 6 6 6 5 6 5 6 6 6 6 5 5
6 7 7 8 9 9 9 10 10 10 10 9 10 10 11 11 11 11 10 10 10 11 9 7 7 7 7 7 7 5 5 6 6 6 5 7 6 6 6 6 6 6 5 5
6 6 8 9 9 9 10 10 10 10 10 9 10 11 12 11 10 10 10 10 9 9 8 8 7 7 6 6 7 5 6 6 6 6 6 6 6 6 6 6 6 6 5 5
7 8 9 10 10 10 10 10 10 11 11 9 10 12 12 12 10 9 9 10 9 7 7 8 6 5 5 5 7 6 6 6 6 6 6 6 6 6 6 6 6 6 6 6
8 9 10 10 11 12 10 10 10 11 12 11 11 11 11 12 11 10 10 9 9 8 6 6 5 6 7 7 5 6 6 7 6 6 6 6 6 6 6 6 6 6 6 6
9 10 11 11 12 12 12 11 11 11 12 12 12 11 11 11 8 8 10 7 6 8 7 6 8 10 10 7 5 6 7 7 7 7 7 7 7 6 6 7 6 6 6 5
11 11 11 11 10 11 13 14 11 9 11 12 11 11 11 9 9 8 8 9 10 11 8 9 11 12 10 6 6 6 7 7 7 6 6 6 6 6 6 6 6 5 6 6
11 11 11 11 11 11 12 11 11 11 11 9 11 11 9 8 8 8 7 8 10 10 8 9 11 11 7 5 6 6 6 6 6 6 6 6 6 6 6 6 6 5 5 5
11 11 11 11 11 10 9 9 9 9 8 9 9 8 7 7 8 8 7 8 10 10 8 6 6 7 6 6 6 6 6 6 7 7 7 6 7 6 6 6 7 6 5 5
11 11 10 10 10 9 8 8 9 10 9 9 10 9 8 7 7 7 8 7 7 7 6 6 5 5 5 5 6 6 6 5 6 6 6 6 6 6 6 7 5 5 5 5
Wind_Direction
268 270 259 257 249 227 222 231 247 260 267 278 293 300 299 298 299 300 298 296 291 287 283 276 266 258 250 242 228 218 218 223 227 227 225 226 228 233 241 249 256 260 264 270
274 260 266 265 254 243 240 242 249 265 276 285 295 292 293 299 302 300 298 299 298 293 284 277 270 263 254 245 230 218 222 225 223 220 219 221 224 228 234 241 246 250 255 264
279 307 295 267 247 221 219 224 231 245 255 282 288 293 301 304 299 296 300 301 299 294 285 279 274 267 257 249 234 223 226 227 221 218 219 220 221 226 231 235 240 246 252 258
292 306 256 252 104 207 223 242 232 247 265 276 287 299 294 284 281 291 302 303 300 295 288 281 276 267 257 244 230 226 228 227 220 217 220 221 222 228 232 234 239 246 252 256
263 280 280 283 210 193 220 266 234 241 263 282 299 295 280 267 275 294 298 297 294 290 284 277 270 262 251 240 231 229 231 229 222 217 219 219 223 227 228 230 237 243 250 255
235 259 263 317 127 162 221 262 162 229 288 305 304 295 307 313 304 301 299 297 294 292 283 273 269 258 246 242 236 235 235 233 226 219 220 222 224 225 224 226 234 239 246 250
232 249 269 277 152 169 243 351 45 291 305 300 286 289 306 307 301 299 298 295 293 287 277 271 268 254 248 246 243 242 239 233 225 220 221 223 223 220 219 221 229 234 242 246
205 225 253 166 159 211 299 334 303 305 304 297 291 295 298 299 297 296 296 293 291 284 279 275 260 246 249 251 252 245 235 230 226 222 219 217 216 216 215 218 226 233 239 246
212 229 274 179 228 278 298 293 298 301 301 299 295 293 298 298 295 295 293 292 289 282 281 277 260 245 251 257 253 241 233 230 227 220 217 215 215 213 213 215 224 231 234 242
252 260 264 266 270 274 278 285 292 296 297 295 291 292 295 295 294 293 292 290 286 281 277 276 270 257 255 260 249 237 234 231 224 219 217 214 214 214 214 215 220 226 232 240
256 271 283 270 264 277 290 293 294 295 294 291 289 289 292 292 291 290 290 289 283 276 275 277 277 268 262 254 238 235 234 230 224 221 219 218 218 218 220 224 227 231 234 237
256 269 276 288 293 294 291 294 298 299 297 294 288 287 289 288 287 287 287 289 285 279 277 278 276 271 265 251 234 231 232 228 222 218 218 220 221 226 226 233 237 239 245 247
266 282 281 286 289 287 290 295 297 293 290 292 292 288 287 287 287 287 285 284 282 281 280 279 276 270 264 247 232 230 232 229 222 218 217 218 218 222 229 224 228 237 241 244
266 273 276 277 283 293 293 293 293 288 284 282 285 287 285 285 285 284 284 286 285 283 279 276 273 269 264 245 233 232 232 227 221 219 218 217 218 221 223 225 227 228 231 238
262 256 266 283 288 291 293 291 290 289 291 291 288 286 285 285 286 287 289 290 286 280 276 273 270 269 264 241 232 232 229 224 218 218 215 216 216 218 220 223 231 236 235 233
278 274 270 272 280 287 289 288 289 293 296 295 293 290 288 286 287 287 286 285 282 282 282 277 272 271 262 238 231 230 227 222 216 215 214 213 212 214 218 219 224 230 233 234
267 271 269 274 280 285 283 281 280 284 288 287 288 292 292 290 288 287 289 288 282 279 278 273 271 271 253 234 226 224 222 216 210 213 215 214 213 216 218 220 224 230 235 233
247 258 267 271 274 281 285 285 281 281 281 283 289 289 286 286 287 291 295 298 293 286 278 269 265 262 249 235 225 222 218 213 209 213 214 214 216 216 218 221 225 231 236 236
253 260 268 269 269 271 274 276 278 279 281 282 282 282 281 279 279 283 289 288 285 285 285 278 263 256 250 236 222 220 218 216 214 214 214 216 219 218 219 222 226 228 232 233
272 273 273 274 271 265 268 273 277 279 278 276 277 279 280 280 280 281 282 278 269 268 279 280 273 262 251 238 222 220 217 217 217 216 213 214 218 219 220 223 225 228 230 232
273 277 278 279 280 276 272 272 274 277 280 276 273 275 278 281 281 276 275 278 276 269 270 265 261 257 248 237 223 223 220 219 217 217 216 217 219 220 221 223 224 226 230 232
270 274 276 278 280 282 281 277 274 276 279 278 274 272 274 278 278 273 262 260 271 270 271 267 261 251 246 243 233 225 221 220 219 218 219 219 219 221 222 223 226 227 229 231
273 275 276 276 275 279 283 280 274 272 273 273 273 273 272 272 273 271 276 269 266 265 265 262 256 253 251 246 236 228 223 221 220 220 221 221 221 221 224 225 226 227 229 230
275 276 275 276 276 276 278 279 276 271 269 271 269 266 266 272 272 259 257 268 267 267 265 260 257 255 252 243 236 231 227 225 223 222 222 222 222 222 223 224 225 226 228 231
270 272 273 273 272 271 273 277 280 278 276 274 273 269 260 253 258 270 270 267 265 267 267 261 257 254 248 239 234 232 230 227 224 220 220 220 221 221 222 222 222 224 226 229
268 271 272 269 268 272 274 274 275 276 277 278 279 276 268 261 258 261 264 263 261 262 262 259 253 248 240 234 233 232 231 230 228 224 220 220 222 222 222 222 224 224 226 228
269 271 272 273 270 263 261 262 265 269 269 269 277 280 276 272 268 264 263 263 263 261 259 255 250 244 239 234 233 231 229 225 220 218 217 218 218 219 220 220 221 221 223 226